Time,TemperatureF,DewpointF,PressureIn,WindDirection,WindDirectionDegrees,WindSpeedMPH,WindSpeedGustMPH,Humidity,HourlyPrecipIn,Conditions,Clouds,dailyrainin,SolarRadiationWatts/m^2,SoftwareType,DateUTC
2013-02-02 00:01:00,74.0,65.0,-100.00,ENE,60,2.0,6.0,73,0.00,,,0.00,0.000000,,2013-02-02 10:01:00,
2013-02-02 00:11:00,74.0,65.0,-100.00,ENE,60,2.0,6.0,73,0.00,,,0.00,0.000000,,2013-02-02 10:11:00,
2013-02-02 00:21:00,74.0,65.0,-100.00,ENE,60,2.0,6.0,73,0.00,,,0.00,0.000000,,2013-02-02 10:21:00,
2013-02-02 00:42:00,74.0,62.0,-100.00,East,96,2.0,5.0,67,0.00,,,0.00,0.000000,,2013-02-02 10:42:00,
2013-02-02 00:52:00,74.0,62.0,-100.00,East,96,2.0,5.0,67,0.00,,,0.00,0.000000,,2013-02-02 10:52:00,
2013-02-02 01:01:00,74.0,62.0,-100.00,East,96,2.0,5.0,67,0.00,,,0.00,0.000000,,2013-02-02 11:01:00,
2013-02-02 01:11:00,74.0,62.0,-100.00,East,96,2.0,5.0,67,0.00,,,0.00,0.000000,,2013-02-02 11:11:00,
2013-02-02 01:21:00,74.0,62.0,-100.00,East,96,2.0,5.0,67,0.00,,,0.00,0.000000,,2013-02-02 11:21:00,
2013-02-02 01:22:00,73.0,61.0,-100.00,East,84,2.0,7.0,67,0.00,,,0.00,0.000000,,2013-02-02 11:22:00,
2013-02-02 01:42:00,73.0,61.0,-100.00,East,84,2.0,7.0,67,0.00,,,0.00,0.000000,,2013-02-02 11:42:00,
2013-02-02 01:52:00,73.0,61.0,-100.00,East,84,2.0,7.0,67,0.00,,,0.00,0.000000,,2013-02-02 11:52:00,
2013-02-02 02:01:00,73.0,61.0,-100.00,East,84,2.0,7.0,67,0.00,,,0.00,0.000000,,2013-02-02 12:01:00,
2013-02-02 02:11:00,73.0,61.0,-100.00,East,84,2.0,7.0,67,0.00,,,0.00,0.000000,,2013-02-02 12:11:00,
2013-02-02 02:42:00,73.0,61.0,-100.00,East,83,2.0,6.0,67,0.00,,,0.00,0.000000,,2013-02-02 12:42:00,
2013-02-02 02:52:00,73.0,61.0,-100.00,East,83,2.0,6.0,67,0.00,,,0.00,0.000000,,2013-02-02 12:52:00,
2013-02-02 03:02:00,73.0,61.0,-100.00,East,83,2.0,6.0,67,0.00,,,0.00,0.000000,,2013-02-02 13:02:00,
2013-02-02 03:11:00,73.0,61.0,-100.00,East,83,2.0,6.0,67,0.00,,,0.00,0.000000,,2013-02-02 13:11:00,
2013-02-02 03:21:00,73.0,61.0,-100.00,East,83,2.0,6.0,67,0.00,,,0.00,0.000000,,2013-02-02 13:21:00,
2013-02-02 03:42:00,71.0,59.0,-100.00,East,91,2.0,6.0,65,0.00,,,0.00,0.000000,,2013-02-02 13:42:00,
2013-02-02 03:52:00,71.0,59.0,-100.00,East,91,2.0,6.0,65,0.00,,,0.00,0.000000,,2013-02-02 13:52:00,
2013-02-02 04:02:00,71.0,59.0,-100.00,East,91,2.0,6.0,65,0.00,,,0.00,0.000000,,2013-02-02 14:02:00,
2013-02-02 04:11:00,71.0,59.0,-100.00,East,91,2.0,6.0,65,0.00,,,0.00,0.000000,,2013-02-02 14:11:00,
2013-02-02 04:21:00,71.0,59.0,-100.00,East,91,2.0,6.0,65,0.00,,,0.00,0.000000,,2013-02-02 14:21:00,
2013-02-02 04:42:00,71.0,58.0,-100.00,East,89,2.0,4.0,64,0.00,,,-99.99,0.000000,,2013-02-02 14:42:00,
2013-02-02 04:52:00,71.0,58.0,-100.00,East,89,2.0,4.0,64,0.00,,,-99.99,0.000000,,2013-02-02 14:52:00,
2013-02-02 05:02:00,71.0,58.0,-100.00,East,89,2.0,4.0,64,0.00,,,-99.99,0.000000,,2013-02-02 15:02:00,
2013-02-02 05:11:00,71.0,58.0,-100.00,East,89,2.0,4.0,64,0.00,,,-99.99,0.000000,,2013-02-02 15:11:00,
2013-02-02 05:21:00,71.0,58.0,-100.00,East,89,2.0,4.0,64,0.00,,,-99.99,0.000000,,2013-02-02 15:21:00,
2013-02-02 05:42:00,71.0,58.0,-100.00,ENE,74,3.0,7.0,63,0.00,,,0.00,0.000000,,2013-02-02 15:42:00,
2013-02-02 05:52:00,71.0,58.0,-100.00,ENE,74,3.0,7.0,63,0.00,,,0.00,0.000000,,2013-02-02 15:52:00,
2013-02-02 06:02:00,71.0,58.0,-100.00,ENE,74,3.0,7.0,63,0.00,,,0.00,0.000000,,2013-02-02 16:02:00,
2013-02-02 06:11:00,71.0,58.0,-100.00,ENE,74,3.0,7.0,63,0.00,,,0.00,0.000000,,2013-02-02 16:11:00,
2013-02-02 06:21:00,71.0,58.0,-100.00,ENE,74,3.0,7.0,63,0.00,,,0.00,0.000000,,2013-02-02 16:21:00,
2013-02-02 06:42:00,69.0,56.0,-100.00,ENE,72,4.0,7.0,64,0.00,,,0.00,0.000000,,2013-02-02 16:42:00,
2013-02-02 06:52:00,69.0,56.0,-100.00,ENE,72,4.0,7.0,64,0.00,,,0.00,0.000000,,2013-02-02 16:52:00,
2013-02-02 07:02:00,69.0,56.0,-100.00,ENE,72,4.0,7.0,64,0.00,,,0.00,0.000000,,2013-02-02 17:02:00,
2013-02-02 07:11:00,69.0,56.0,-100.00,ENE,72,4.0,7.0,64,0.00,,,0.00,0.000000,,2013-02-02 17:11:00,
2013-02-02 07:21:00,69.0,56.0,-100.00,ENE,72,4.0,7.0,64,0.00,,,0.00,0.000000,,2013-02-02 17:21:00,
2013-02-02 07:42:00,69.0,57.0,-100.00,ENE,70,4.0,9.0,65,0.00,,,0.00,0.000000,,2013-02-02 17:42:00,
2013-02-02 07:52:00,69.0,57.0,-100.00,ENE,70,4.0,9.0,65,0.00,,,0.00,0.000000,,2013-02-02 17:52:00,
2013-02-02 08:02:00,69.0,57.0,-100.00,ENE,70,4.0,9.0,65,0.00,,,0.00,0.000000,,2013-02-02 18:02:00,
2013-02-02 08:11:00,69.0,57.0,-100.00,ENE,70,4.0,9.0,65,0.00,,,0.00,0.000000,,2013-02-02 18:11:00,
2013-02-02 08:21:00,69.0,57.0,-100.00,ENE,70,4.0,9.0,65,0.00,,,0.00,0.000000,,2013-02-02 18:21:00,
2013-02-02 08:42:00,69.0,54.0,-100.00,ENE,65,5.0,9.0,58,0.00,,,0.00,57.000000,,2013-02-02 18:42:00,
2013-02-02 08:52:00,69.0,54.0,-100.00,ENE,65,5.0,9.0,58,0.00,,,0.00,57.000000,,2013-02-02 18:52:00,
2013-02-02 09:01:00,69.0,54.0,-100.00,ENE,65,5.0,9.0,58,0.00,,,0.00,57.000000,,2013-02-02 19:01:00,
2013-02-02 09:11:00,69.0,54.0,-100.00,ENE,65,5.0,9.0,58,0.00,,,0.00,57.000000,,2013-02-02 19:11:00,
2013-02-02 09:21:00,69.0,54.0,-100.00,ENE,65,5.0,9.0,58,0.00,,,0.00,57.000000,,2013-02-02 19:21:00,
2013-02-02 09:42:00,75.0,54.0,-100.00,ENE,72,3.0,8.0,48,0.00,,,0.00,267.000000,,2013-02-02 19:42:00,
2013-02-02 09:52:00,75.0,54.0,-100.00,ENE,72,3.0,8.0,48,0.00,,,0.00,267.000000,,2013-02-02 19:52:00,
2013-02-02 10:01:00,75.0,54.0,-100.00,ENE,72,3.0,8.0,48,0.00,,,0.00,267.000000,,2013-02-02 20:01:00,
2013-02-02 10:11:00,75.0,54.0,-100.00,ENE,72,3.0,8.0,48,0.00,,,0.00,267.000000,,2013-02-02 20:11:00,
2013-02-02 10:21:00,75.0,54.0,-100.00,ENE,72,3.0,8.0,48,0.00,,,0.00,267.000000,,2013-02-02 20:21:00,
2013-02-02 10:42:00,78.0,61.0,-100.00,West,274,3.0,7.0,56,0.00,,,0.00,484.000000,,2013-02-02 20:42:00,
2013-02-02 10:52:00,78.0,61.0,-100.00,West,274,3.0,7.0,56,0.00,,,0.00,484.000000,,2013-02-02 20:52:00,
2013-02-02 11:02:00,78.0,61.0,-100.00,West,274,3.0,7.0,56,0.00,,,0.00,484.000000,,2013-02-02 21:02:00,
2013-02-02 11:11:00,78.0,61.0,-100.00,West,274,3.0,7.0,56,0.00,,,0.00,484.000000,,2013-02-02 21:11:00,
2013-02-02 11:21:00,78.0,61.0,-100.00,West,274,3.0,7.0,56,0.00,,,0.00,484.000000,,2013-02-02 21:21:00,
2013-02-02 11:42:00,79.0,61.0,-100.00,West,264,4.0,9.0,55,0.00,,,0.00,657.000000,,2013-02-02 21:42:00,
2013-02-02 11:52:00,79.0,61.0,-100.00,West,264,4.0,9.0,55,0.00,,,0.00,657.000000,,2013-02-02 21:52:00,
2013-02-02 12:02:00,79.0,61.0,-100.00,West,264,4.0,9.0,55,0.00,,,0.00,657.000000,,2013-02-02 22:02:00,
2013-02-02 12:11:00,79.0,61.0,-100.00,West,264,4.0,9.0,55,0.00,,,0.00,657.000000,,2013-02-02 22:11:00,
2013-02-02 12:21:00,79.0,61.0,-100.00,West,264,4.0,9.0,55,0.00,,,0.00,657.000000,,2013-02-02 22:21:00,
2013-02-02 12:42:00,79.0,61.0,-100.00,West,261,4.0,8.0,54,0.00,,,0.00,777.000000,,2013-02-02 22:42:00,
2013-02-02 12:52:00,79.0,61.0,-100.00,West,261,4.0,8.0,54,0.00,,,0.00,777.000000,,2013-02-02 22:52:00,
2013-02-02 13:01:00,79.0,61.0,-100.00,West,261,4.0,8.0,54,0.00,,,0.00,777.000000,,2013-02-02 23:01:00,
2013-02-02 13:11:00,79.0,61.0,-100.00,West,261,4.0,8.0,54,0.00,,,0.00,777.000000,,2013-02-02 23:11:00,
2013-02-02 13:21:00,79.0,61.0,-100.00,West,261,4.0,8.0,54,0.00,,,0.00,777.000000,,2013-02-02 23:21:00,
2013-02-02 13:42:00,80.0,63.0,-100.00,West,262,4.0,10.0,56,0.00,,,0.00,840.000000,,2013-02-02 23:42:00,
2013-02-02 13:52:00,80.0,63.0,-100.00,West,262,4.0,10.0,56,0.00,,,0.00,840.000000,,2013-02-02 23:52:00,
2013-02-02 14:01:00,80.0,63.0,-100.00,West,262,4.0,10.0,56,0.00,,,0.00,840.000000,,2013-02-03 00:01:00,
2013-02-02 14:11:00,80.0,63.0,-100.00,West,262,4.0,10.0,56,0.00,,,0.00,840.000000,,2013-02-03 00:11:00,
2013-02-02 14:21:00,80.0,63.0,-100.00,West,262,4.0,10.0,56,0.00,,,0.00,840.000000,,2013-02-03 00:21:00,
2013-02-02 14:42:00,80.0,62.0,-100.00,West,265,4.0,9.0,54,0.00,,,0.00,804.000000,,2013-02-03 00:42:00,
2013-02-02 14:52:00,80.0,62.0,-100.00,West,265,4.0,9.0,54,0.00,,,0.00,804.000000,,2013-02-03 00:52:00,
2013-02-02 15:02:00,80.0,62.0,-100.00,West,265,4.0,9.0,54,0.00,,,0.00,804.000000,,2013-02-03 01:02:00,
2013-02-02 15:11:00,80.0,62.0,-100.00,West,265,4.0,9.0,54,0.00,,,0.00,804.000000,,2013-02-03 01:11:00,
2013-02-02 15:21:00,80.0,62.0,-100.00,West,265,4.0,9.0,54,0.00,,,0.00,804.000000,,2013-02-03 01:21:00,
2013-02-02 15:42:00,80.0,60.0,-100.00,West,268,4.0,9.0,51,0.00,,,0.00,696.000000,,2013-02-03 01:42:00,
2013-02-02 15:52:00,80.0,60.0,-100.00,West,268,4.0,9.0,51,0.00,,,0.00,696.000000,,2013-02-03 01:52:00,
2013-02-02 16:01:00,80.0,60.0,-100.00,West,268,4.0,9.0,51,0.00,,,0.00,696.000000,,2013-02-03 02:01:00,
2013-02-02 16:11:00,80.0,60.0,-100.00,West,268,4.0,9.0,51,0.00,,,0.00,696.000000,,2013-02-03 02:11:00,
2013-02-02 16:21:00,80.0,60.0,-100.00,West,268,4.0,9.0,51,0.00,,,0.00,696.000000,,2013-02-03 02:21:00,
2013-02-02 16:42:00,80.0,63.0,-100.00,West,267,4.0,9.0,56,0.00,,,0.00,529.000000,,2013-02-03 02:42:00,
2013-02-02 16:52:00,80.0,63.0,-100.00,West,267,4.0,9.0,56,0.00,,,0.00,529.000000,,2013-02-03 02:52:00,
2013-02-02 17:02:00,80.0,63.0,-100.00,West,267,4.0,9.0,56,0.00,,,0.00,529.000000,,2013-02-03 03:02:00,
2013-02-02 17:11:00,80.0,63.0,-100.00,West,267,4.0,9.0,56,0.00,,,0.00,529.000000,,2013-02-03 03:11:00,
2013-02-02 17:21:00,80.0,63.0,-100.00,West,267,4.0,9.0,56,0.00,,,0.00,529.000000,,2013-02-03 03:21:00,
2013-02-02 17:42:00,79.0,62.0,-100.00,West,269,4.0,8.0,56,0.00,,,-99.99,334.000000,,2013-02-03 03:42:00,
2013-02-02 17:52:00,79.0,62.0,-100.00,West,269,4.0,8.0,56,0.00,,,-99.99,334.000000,,2013-02-03 03:52:00,
2013-02-02 18:01:00,79.0,62.0,-100.00,West,269,4.0,8.0,56,0.00,,,-99.99,334.000000,,2013-02-03 04:01:00,
2013-02-02 18:11:00,79.0,62.0,-100.00,West,269,4.0,8.0,56,0.00,,,-99.99,334.000000,,2013-02-03 04:11:00,
2013-02-02 18:21:00,79.0,62.0,-100.00,West,269,4.0,8.0,56,0.00,,,-99.99,334.000000,,2013-02-03 04:21:00,
2013-02-02 18:22:00,78.0,63.0,-100.00,West,279,3.0,9.0,60,0.00,,,0.00,132.000000,,2013-02-03 04:22:00,
2013-02-02 18:42:00,78.0,63.0,-100.00,West,279,3.0,9.0,60,0.00,,,0.00,132.000000,,2013-02-03 04:42:00,
2013-02-02 18:52:00,78.0,63.0,-100.00,West,279,3.0,9.0,60,0.00,,,0.00,132.000000,,2013-02-03 04:52:00,
2013-02-02 19:03:00,78.0,63.0,-100.00,West,279,3.0,9.0,60,0.00,,,0.00,132.000000,,2013-02-03 05:03:00,
2013-02-02 19:11:00,78.0,63.0,-100.00,West,279,3.0,9.0,60,0.00,,,0.00,132.000000,,2013-02-03 05:11:00,
2013-02-02 19:42:00,75.0,62.0,-100.00,WNW,282,1.0,4.0,63,0.00,,,0.00,5.000000,,2013-02-03 05:42:00,
2013-02-02 19:52:00,75.0,62.0,-100.00,WNW,282,1.0,4.0,63,0.00,,,0.00,5.000000,,2013-02-03 05:52:00,
2013-02-02 20:02:00,75.0,62.0,-100.00,WNW,282,1.0,4.0,63,0.00,,,0.00,5.000000,,2013-02-03 06:02:00,
2013-02-02 20:11:00,75.0,62.0,-100.00,WNW,282,1.0,4.0,63,0.00,,,0.00,5.000000,,2013-02-03 06:11:00,
2013-02-02 20:21:00,75.0,62.0,-100.00,WNW,282,1.0,4.0,63,0.00,,,0.00,5.000000,,2013-02-03 06:21:00,
2013-02-02 20:42:00,74.0,62.0,-100.00,North,10,1.0,3.0,67,0.00,,,0.00,0.000000,,2013-02-03 06:42:00,
2013-02-02 20:52:00,74.0,62.0,-100.00,North,10,1.0,3.0,67,0.00,,,0.00,0.000000,,2013-02-03 06:52:00,
2013-02-02 21:01:00,74.0,62.0,-100.00,North,10,1.0,3.0,67,0.00,,,0.00,0.000000,,2013-02-03 07:01:00,
2013-02-02 21:11:00,74.0,62.0,-100.00,North,10,1.0,3.0,67,0.00,,,0.00,0.000000,,2013-02-03 07:11:00,
2013-02-02 21:21:00,74.0,62.0,-100.00,North,10,1.0,3.0,67,0.00,,,0.00,0.000000,,2013-02-03 07:21:00,
2013-02-02 21:22:00,72.0,62.0,-100.00,ENE,71,2.0,5.0,70,0.00,,,-99.99,0.000000,,2013-02-03 07:22:00,
2013-02-02 21:42:00,72.0,62.0,-100.00,ENE,71,2.0,5.0,70,0.00,,,-99.99,0.000000,,2013-02-03 07:42:00,
2013-02-02 21:52:00,72.0,62.0,-100.00,ENE,71,2.0,5.0,70,0.00,,,-99.99,0.000000,,2013-02-03 07:52:00,
2013-02-02 22:01:00,72.0,62.0,-100.00,ENE,71,2.0,5.0,70,0.00,,,-99.99,0.000000,,2013-02-03 08:01:00,
2013-02-02 22:11:00,72.0,62.0,-100.00,ENE,71,2.0,5.0,70,0.00,,,-99.99,0.000000,,2013-02-03 08:11:00,
2013-02-02 22:42:00,71.0,60.0,-100.00,East,81,3.0,6.0,69,0.00,,,0.00,0.000000,,2013-02-03 08:42:00,
2013-02-02 22:52:00,71.0,60.0,-100.00,East,81,3.0,6.0,69,0.00,,,0.00,0.000000,,2013-02-03 08:52:00,
2013-02-02 23:02:00,71.0,60.0,-100.00,East,81,3.0,6.0,69,0.00,,,0.00,0.000000,,2013-02-03 09:02:00,
2013-02-02 23:11:00,71.0,60.0,-100.00,East,81,3.0,6.0,69,0.00,,,0.00,0.000000,,2013-02-03 09:11:00,
2013-02-02 23:21:00,71.0,60.0,-100.00,East,81,3.0,6.0,69,0.00,,,0.00,0.000000,,2013-02-03 09:21:00,
2013-02-02 23:42:00,70.0,59.0,-100.00,ENE,72,3.0,7.0,68,0.00,,,0.00,0.000000,,2013-02-03 09:42:00,
2013-02-02 23:52:00,70.0,59.0,-100.00,ENE,72,3.0,7.0,68,0.00,,,0.00,0.000000,,2013-02-03 09:52:00,